Year,Month,Day,Hour,Minute,Value (Times are PST for temperature in C)
2007,01,09,00,00,5.70
2007,01,09,00,01,5.70
2007,01,09,00,02,5.70
2007,01,09,00,03,5.70
2007,01,09,00,04,5.70
2007,01,09,00,05,5.70
2007,01,09,00,06,5.70
2007,01,09,00,07,5.70
2007,01,09,00,08,5.70
2007,01,09,00,09,5.70
2007,01,09,00,10,5.70
2007,01,09,00,11,5.70
2007,01,09,00,12,5.70
2007,01,09,00,13,5.70
2007,01,09,00,14,5.70
2007,01,09,00,15,5.70
2007,01,09,00,16,5.70
2007,01,09,00,17,5.70
2007,01,09,00,18,5.70
2007,01,09,00,19,5.70
2007,01,09,00,20,5.70
2007,01,09,00,21,5.70
2007,01,09,00,22,5.70
2007,01,09,00,23,5.70
2007,01,09,00,24,5.70
2007,01,09,00,25,5.70
2007,01,09,00,26,5.70
2007,01,09,00,27,5.70
2007,01,09,00,28,5.70
2007,01,09,00,29,5.70
2007,01,09,00,30,5.70
2007,01,09,00,31,5.70
2007,01,09,00,32,5.70
2007,01,09,00,33,5.70
2007,01,09,00,34,5.70
2007,01,09,00,35,5.70
2007,01,09,00,36,5.70
2007,01,09,00,37,5.70
2007,01,09,00,38,5.70
2007,01,09,00,39,5.70
2007,01,09,00,40,5.70
2007,01,09,00,41,5.70
2007,01,09,00,42,5.70
2007,01,09,00,43,5.70
2007,01,09,00,44,5.70
2007,01,09,00,45,5.70
2007,01,09,00,46,5.70
2007,01,09,00,47,5.70
2007,01,09,00,48,5.70
2007,01,09,00,49,5.70
2007,01,09,00,50,5.70
2007,01,09,00,51,5.70
2007,01,09,00,52,5.70
2007,01,09,00,53,5.70
2007,01,09,00,54,5.70
2007,01,09,00,55,5.70
2007,01,09,00,56,5.70
2007,01,09,00,57,5.70
2007,01,09,00,58,5.80
2007,01,09,00,59,5.80
2007,01,09,01,00,5.80
2007,01,09,01,01,5.80
2007,01,09,01,02,5.90
2007,01,09,01,03,5.90
2007,01,09,01,04,5.90
2007,01,09,01,05,5.90
2007,01,09,01,06,5.90
2007,01,09,01,07,5.90
2007,01,09,01,08,5.90
2007,01,09,01,09,5.90
2007,01,09,01,10,5.90
2007,01,09,01,11,5.90
2007,01,09,01,12,5.90
2007,01,09,01,13,5.90
2007,01,09,01,14,5.90
2007,01,09,01,15,6.00
2007,01,09,01,16,6.00
2007,01,09,01,17,6.00
2007,01,09,01,18,6.00
2007,01,09,01,19,6.00
2007,01,09,01,20,6.00
2007,01,09,01,21,6.00
2007,01,09,01,22,6.00
2007,01,09,01,23,6.00
2007,01,09,01,24,6.00
2007,01,09,01,25,6.00
2007,01,09,01,26,6.00
2007,01,09,01,27,6.00
2007,01,09,01,28,6.00
2007,01,09,01,29,6.00
2007,01,09,01,30,5.90
2007,01,09,01,31,5.90
2007,01,09,01,32,5.90
2007,01,09,01,33,5.90
2007,01,09,01,34,6.00
2007,01,09,01,35,6.00
2007,01,09,01,36,6.00
2007,01,09,01,37,6.00
2007,01,09,01,38,6.00
2007,01,09,01,39,6.00
2007,01,09,01,40,6.00
2007,01,09,01,41,6.00
2007,01,09,01,42,6.00
2007,01,09,01,43,6.00
2007,01,09,01,44,6.00
2007,01,09,01,45,6.00
2007,01,09,01,46,6.00
2007,01,09,01,47,6.00
2007,01,09,01,48,6.00
2007,01,09,01,49,6.00
2007,01,09,01,50,6.00
2007,01,09,01,51,6.00
2007,01,09,01,52,6.00
2007,01,09,01,53,6.00
2007,01,09,01,54,6.00
2007,01,09,01,55,6.00
2007,01,09,01,56,6.00
2007,01,09,01,57,6.00
2007,01,09,01,58,6.00
2007,01,09,01,59,6.00
2007,01,09,02,00,6.00
2007,01,09,02,01,6.00
2007,01,09,02,02,6.00
2007,01,09,02,03,6.00
2007,01,09,02,04,6.00
2007,01,09,02,05,6.00
2007,01,09,02,06,6.00
2007,01,09,02,07,6.00
2007,01,09,02,08,6.00
2007,01,09,02,09,6.00
2007,01,09,02,10,6.00
2007,01,09,02,11,6.00
2007,01,09,02,12,6.00
2007,01,09,02,13,6.00
2007,01,09,02,14,6.00
2007,01,09,02,15,6.00
2007,01,09,02,16,6.00
2007,01,09,02,17,6.00
2007,01,09,02,18,6.00
2007,01,09,02,19,6.00
2007,01,09,02,20,6.00
2007,01,09,02,21,6.00
2007,01,09,02,22,6.00
2007,01,09,02,23,6.00
2007,01,09,02,24,6.00
2007,01,09,02,25,6.00
2007,01,09,02,26,6.00
2007,01,09,02,27,6.00
2007,01,09,02,28,6.00
2007,01,09,02,29,6.00
2007,01,09,02,30,6.00
2007,01,09,02,31,6.00
2007,01,09,02,32,6.00
2007,01,09,02,33,6.00
2007,01,09,02,34,6.00
2007,01,09,02,35,6.00
2007,01,09,02,36,6.00
2007,01,09,02,37,6.00
2007,01,09,02,38,6.00
2007,01,09,02,39,6.00
2007,01,09,02,40,6.00
2007,01,09,02,41,6.00
2007,01,09,02,42,6.00
2007,01,09,02,43,6.00
2007,01,09,02,44,6.00
2007,01,09,02,45,6.00
2007,01,09,02,46,5.90
2007,01,09,02,47,5.90
2007,01,09,02,48,5.90
2007,01,09,02,49,5.90
2007,01,09,02,50,5.90
2007,01,09,02,51,5.90
2007,01,09,02,52,5.90
2007,01,09,02,53,5.90
2007,01,09,02,54,5.90
2007,01,09,02,55,5.90
2007,01,09,02,56,5.90
2007,01,09,02,57,5.90
2007,01,09,02,58,5.90
2007,01,09,02,59,5.90
2007,01,09,03,00,5.90
2007,01,09,03,01,5.90
2007,01,09,03,02,5.90
2007,01,09,03,03,5.90
2007,01,09,03,04,5.90
2007,01,09,03,05,5.90
2007,01,09,03,06,6.00
2007,01,09,03,07,6.00
2007,01,09,03,08,6.00
2007,01,09,03,09,6.00
2007,01,09,03,10,6.00
2007,01,09,03,11,6.00
2007,01,09,03,12,6.10
2007,01,09,03,13,6.10
2007,01,09,03,14,6.10
2007,01,09,03,15,6.20
2007,01,09,03,16,6.20
2007,01,09,03,17,6.20
2007,01,09,03,18,6.30
2007,01,09,03,19,6.30
2007,01,09,03,20,6.40
2007,01,09,03,21,6.40
2007,01,09,03,22,6.50
2007,01,09,03,23,6.60
2007,01,09,03,24,6.60
2007,01,09,03,25,6.70
2007,01,09,03,26,6.80
2007,01,09,03,27,6.90
2007,01,09,03,28,7.00
2007,01,09,03,29,7.10
2007,01,09,03,30,7.20
2007,01,09,03,31,7.30
2007,01,09,03,32,7.30
2007,01,09,03,33,7.40
2007,01,09,03,34,7.50
2007,01,09,03,35,7.50
2007,01,09,03,36,7.50
2007,01,09,03,37,7.60
2007,01,09,03,38,7.60
2007,01,09,03,39,7.70
2007,01,09,03,40,7.80
2007,01,09,03,41,7.80
2007,01,09,03,42,7.80
2007,01,09,03,43,7.80
2007,01,09,03,44,7.80
2007,01,09,03,45,7.90
2007,01,09,03,46,7.90
2007,01,09,03,47,7.90
2007,01,09,03,48,7.90
2007,01,09,03,49,8.00
2007,01,09,03,50,8.00
2007,01,09,03,51,8.00
2007,01,09,03,52,8.00
2007,01,09,03,53,8.00
2007,01,09,03,54,8.00
2007,01,09,03,55,8.00
2007,01,09,03,56,8.10
2007,01,09,03,57,8.10
2007,01,09,03,58,8.10
2007,01,09,03,59,8.10
2007,01,09,04,00,8.10
2007,01,09,04,01,8.10
2007,01,09,04,02,8.10
2007,01,09,04,03,8.20
2007,01,09,04,04,8.20
2007,01,09,04,05,8.20
2007,01,09,04,06,8.20
2007,01,09,04,07,8.20
2007,01,09,04,08,8.20
2007,01,09,04,09,8.20
2007,01,09,04,10,8.30
2007,01,09,04,11,8.30
2007,01,09,04,12,8.30
2007,01,09,04,13,8.30
2007,01,09,04,14,8.40
2007,01,09,04,15,8.40
2007,01,09,04,16,8.40
2007,01,09,04,17,8.40
2007,01,09,04,18,8.40
2007,01,09,04,19,8.50
2007,01,09,04,20,8.50
2007,01,09,04,21,8.60
2007,01,09,04,22,8.60
2007,01,09,04,23,8.70
2007,01,09,04,24,8.70
2007,01,09,04,25,8.70
2007,01,09,04,26,8.70
2007,01,09,04,27,8.70
2007,01,09,04,28,8.80
2007,01,09,04,29,8.80
2007,01,09,04,30,8.80
2007,01,09,04,31,8.80
2007,01,09,04,32,8.80
2007,01,09,04,33,8.90
2007,01,09,04,34,8.90
2007,01,09,04,35,8.90
2007,01,09,04,36,8.90
2007,01,09,04,37,8.90
2007,01,09,04,38,8.90
2007,01,09,04,39,9.00
2007,01,09,04,40,9.00
2007,01,09,04,41,9.00
2007,01,09,04,42,9.00
2007,01,09,04,43,9.00
2007,01,09,04,44,9.10
2007,01,09,04,45,9.10
2007,01,09,04,46,9.10
2007,01,09,04,47,9.10
2007,01,09,04,48,9.10
2007,01,09,04,49,9.10
2007,01,09,04,50,9.10
2007,01,09,04,51,9.10
2007,01,09,04,52,9.10
2007,01,09,04,53,9.10
2007,01,09,04,54,9.10
2007,01,09,04,55,9.10
2007,01,09,04,56,9.20
2007,01,09,04,57,9.10
2007,01,09,04,58,9.10
2007,01,09,04,59,9.10
2007,01,09,05,00,9.10
2007,01,09,05,01,9.10
2007,01,09,05,02,9.10
2007,01,09,05,03,9.10
2007,01,09,05,04,9.10
2007,01,09,05,05,9.10
2007,01,09,05,06,9.10
2007,01,09,05,07,9.10
2007,01,09,05,08,9.10
2007,01,09,05,09,9.10
2007,01,09,05,10,9.20
2007,01,09,05,11,9.20
2007,01,09,05,12,9.20
2007,01,09,05,13,9.20
2007,01,09,05,14,9.20
2007,01,09,05,15,9.20
2007,01,09,05,16,9.10
2007,01,09,05,17,9.20
2007,01,09,05,18,9.20
2007,01,09,05,19,9.20
2007,01,09,05,20,9.20
2007,01,09,05,21,9.20
2007,01,09,05,22,9.20
2007,01,09,05,23,9.20
2007,01,09,05,24,9.20
2007,01,09,05,25,9.20
2007,01,09,05,26,9.20
2007,01,09,05,27,9.20
2007,01,09,05,28,9.20
2007,01,09,05,29,9.20
2007,01,09,05,30,9.20
2007,01,09,05,31,9.10
2007,01,09,05,32,9.10
2007,01,09,05,33,9.10
2007,01,09,05,34,9.10
2007,01,09,05,35,9.10
2007,01,09,05,36,9.10
2007,01,09,05,37,9.10
2007,01,09,05,38,9.00
2007,01,09,05,39,9.00
2007,01,09,05,40,9.00
2007,01,09,05,41,9.00
2007,01,09,05,42,9.00
2007,01,09,05,43,9.00
2007,01,09,05,44,9.00
2007,01,09,05,45,9.00
2007,01,09,05,46,9.10
2007,01,09,05,47,9.10
2007,01,09,05,48,9.10
2007,01,09,05,49,9.00
2007,01,09,05,50,9.00
2007,01,09,05,51,9.00
2007,01,09,05,52,9.00
2007,01,09,05,53,9.00
2007,01,09,05,54,9.00
2007,01,09,05,55,9.00
2007,01,09,05,56,9.00
2007,01,09,05,57,9.00
2007,01,09,05,58,9.00
2007,01,09,05,59,9.10
2007,01,09,06,00,9.10
2007,01,09,06,01,9.10
2007,01,09,06,02,9.20
2007,01,09,06,03,9.20
2007,01,09,06,04,9.20
2007,01,09,06,05,9.20
2007,01,09,06,06,9.20
2007,01,09,06,07,9.20
2007,01,09,06,08,9.20
2007,01,09,06,09,9.20
2007,01,09,06,10,9.20
2007,01,09,06,11,9.20
2007,01,09,06,12,9.20
2007,01,09,06,13,9.20
2007,01,09,06,14,9.20
2007,01,09,06,15,9.20
2007,01,09,06,16,9.20
2007,01,09,06,17,9.20
2007,01,09,06,18,9.20
2007,01,09,06,19,9.20
2007,01,09,06,20,9.20
2007,01,09,06,21,9.20
2007,01,09,06,22,9.20
2007,01,09,06,23,9.20
2007,01,09,06,24,9.20
2007,01,09,06,25,9.20
2007,01,09,06,26,9.20
2007,01,09,06,27,9.20
2007,01,09,06,28,9.20
2007,01,09,06,29,9.20
2007,01,09,06,30,9.20
2007,01,09,06,31,9.20
2007,01,09,06,32,9.20
2007,01,09,06,33,9.20
2007,01,09,06,34,9.20
2007,01,09,06,35,9.20
2007,01,09,06,36,9.20
2007,01,09,06,37,9.20
2007,01,09,06,38,9.20
2007,01,09,06,39,9.20
2007,01,09,06,40,9.20
2007,01,09,06,41,9.20
2007,01,09,06,42,9.20
2007,01,09,06,43,9.20
2007,01,09,06,44,9.20
2007,01,09,06,45,9.20
2007,01,09,06,46,9.20
2007,01,09,06,47,9.20
2007,01,09,06,48,9.20
2007,01,09,06,49,9.20
2007,01,09,06,50,9.20
2007,01,09,06,51,9.20
2007,01,09,06,52,9.20
2007,01,09,06,53,9.20
2007,01,09,06,54,9.20
2007,01,09,06,55,9.20
2007,01,09,06,56,9.20
2007,01,09,06,57,9.20
2007,01,09,06,58,9.30
2007,01,09,06,59,9.30
2007,01,09,07,00,9.40
2007,01,09,07,01,9.40
2007,01,09,07,02,9.40
2007,01,09,07,03,9.30
2007,01,09,07,04,9.30
2007,01,09,07,05,9.30
2007,01,09,07,06,9.30
2007,01,09,07,07,9.30
2007,01,09,07,08,9.30
2007,01,09,07,09,9.30
2007,01,09,07,10,9.20
2007,01,09,07,11,9.20
2007,01,09,07,12,9.20
2007,01,09,07,13,9.10
2007,01,09,07,14,9.10
2007,01,09,07,15,9.10
2007,01,09,07,16,9.10
2007,01,09,07,17,9.10
2007,01,09,07,18,9.00
2007,01,09,07,19,9.00
2007,01,09,07,20,9.00
2007,01,09,07,21,9.00
2007,01,09,07,22,8.90
2007,01,09,07,23,8.90
2007,01,09,07,24,8.90
2007,01,09,07,25,8.80
2007,01,09,07,26,8.80
2007,01,09,07,27,8.80
2007,01,09,07,28,8.80
2007,01,09,07,29,8.80
2007,01,09,07,30,8.80
2007,01,09,07,31,8.70
2007,01,09,07,32,8.70
2007,01,09,07,33,8.70
2007,01,09,07,34,8.70
2007,01,09,07,35,8.70
2007,01,09,07,36,8.70
2007,01,09,07,37,8.60
2007,01,09,07,38,8.60
2007,01,09,07,39,8.60
2007,01,09,07,40,8.60
2007,01,09,07,41,8.60
2007,01,09,07,42,8.60
2007,01,09,07,43,8.60
2007,01,09,07,44,8.60
2007,01,09,07,45,8.60
2007,01,09,07,46,8.50
2007,01,09,07,47,8.60
2007,01,09,07,48,8.60
2007,01,09,07,49,8.60
2007,01,09,07,50,8.60
2007,01,09,07,51,8.60
2007,01,09,07,52,8.60
2007,01,09,07,53,8.60
2007,01,09,07,54,8.60
2007,01,09,07,55,8.60
2007,01,09,07,56,8.60
2007,01,09,07,57,8.60
2007,01,09,07,58,8.70
2007,01,09,07,59,8.70
2007,01,09,08,00,8.60
2007,01,09,08,01,8.60
2007,01,09,08,02,8.60
2007,01,09,08,03,8.50
2007,01,09,08,04,8.40
2007,01,09,08,05,8.40
2007,01,09,08,06,8.30
2007,01,09,08,07,8.30
2007,01,09,08,08,8.20
2007,01,09,08,09,8.20
2007,01,09,08,10,8.20
2007,01,09,08,11,8.10
2007,01,09,08,12,8.00
2007,01,09,08,13,8.00
2007,01,09,08,14,8.00
2007,01,09,08,15,8.00
2007,01,09,08,16,7.90
2007,01,09,08,17,7.90
2007,01,09,08,18,7.90
2007,01,09,08,19,7.90
2007,01,09,08,20,7.90
2007,01,09,08,21,7.90
2007,01,09,08,22,7.80
2007,01,09,08,23,7.80
2007,01,09,08,24,7.80
2007,01,09,08,25,7.80
2007,01,09,08,26,7.80
2007,01,09,08,27,7.80
2007,01,09,08,28,7.70
2007,01,09,08,29,7.70
2007,01,09,08,30,7.70
2007,01,09,08,31,7.70
2007,01,09,08,32,7.70
2007,01,09,08,33,7.70
2007,01,09,08,34,7.70
2007,01,09,08,35,7.70
2007,01,09,08,36,7.70
2007,01,09,08,37,7.60
2007,01,09,08,38,7.60
2007,01,09,08,39,7.60
2007,01,09,08,40,7.60
2007,01,09,08,41,7.60
2007,01,09,08,42,7.60
2007,01,09,08,43,7.60
2007,01,09,08,44,7.60
2007,01,09,08,45,7.60
2007,01,09,08,46,7.60
2007,01,09,08,47,7.60
2007,01,09,08,48,7.70
2007,01,09,08,49,7.70
2007,01,09,08,50,7.70
2007,01,09,08,51,7.70
2007,01,09,08,52,7.70
2007,01,09,08,53,7.70
2007,01,09,08,54,7.80
2007,01,09,08,55,7.80
2007,01,09,08,56,7.80
2007,01,09,08,57,7.80
2007,01,09,08,58,7.80
2007,01,09,08,59,7.80
2007,01,09,09,00,7.80
2007,01,09,09,01,7.90
2007,01,09,09,02,7.90
2007,01,09,09,03,7.90
2007,01,09,09,04,7.90
2007,01,09,09,05,7.90
2007,01,09,09,06,7.90
2007,01,09,09,07,7.90
2007,01,09,09,08,7.90
2007,01,09,09,09,7.90
2007,01,09,09,10,7.90
2007,01,09,09,11,7.90
2007,01,09,09,12,7.90
2007,01,09,09,13,8.00
2007,01,09,09,14,8.00
2007,01,09,09,15,8.00
2007,01,09,09,16,8.00
2007,01,09,09,17,8.10
2007,01,09,09,18,8.10
2007,01,09,09,19,8.10
2007,01,09,09,20,8.10
2007,01,09,09,21,8.10
2007,01,09,09,22,8.10
2007,01,09,09,23,8.20
2007,01,09,09,24,8.20
2007,01,09,09,25,8.20
2007,01,09,09,26,8.20
2007,01,09,09,27,8.20
2007,01,09,09,28,8.20
2007,01,09,09,29,8.20
2007,01,09,09,30,8.20
2007,01,09,09,31,8.20
2007,01,09,09,32,8.20
2007,01,09,09,33,8.20
2007,01,09,09,34,8.20
2007,01,09,09,35,8.20
2007,01,09,09,36,8.20
2007,01,09,09,37,8.20
2007,01,09,09,38,8.20
2007,01,09,09,39,8.10
2007,01,09,09,40,8.10
2007,01,09,09,41,8.10
2007,01,09,09,42,8.10
2007,01,09,09,43,8.10
2007,01,09,09,44,8.10
2007,01,09,09,45,8.10
2007,01,09,09,46,8.10
2007,01,09,09,47,8.10
2007,01,09,09,48,8.10
2007,01,09,09,49,8.10
2007,01,09,09,50,8.10
2007,01,09,09,51,8.00
2007,01,09,09,52,8.00
2007,01,09,09,53,8.00
2007,01,09,09,54,7.90
2007,01,09,09,55,7.90
2007,01,09,09,56,7.90
2007,01,09,09,57,7.90
2007,01,09,09,58,7.90
2007,01,09,09,59,7.80
2007,01,09,10,00,7.80
2007,01,09,10,01,7.80
2007,01,09,10,02,7.80
2007,01,09,10,03,7.80
2007,01,09,10,04,7.80
2007,01,09,10,05,7.80
2007,01,09,10,06,7.80
2007,01,09,10,07,7.80
2007,01,09,10,08,7.80
2007,01,09,10,09,7.80
2007,01,09,10,10,7.80
2007,01,09,10,11,7.80
2007,01,09,10,12,7.80
2007,01,09,10,13,7.80
2007,01,09,10,14,7.80
2007,01,09,10,15,7.80
2007,01,09,10,16,7.70
2007,01,09,10,17,7.70
2007,01,09,10,18,7.70
2007,01,09,10,19,7.70
2007,01,09,10,20,7.70
2007,01,09,10,21,7.70
2007,01,09,10,22,7.70
2007,01,09,10,23,7.70
2007,01,09,10,24,7.70
2007,01,09,10,25,7.70
2007,01,09,10,26,7.70
2007,01,09,10,27,7.70
2007,01,09,10,28,7.70
2007,01,09,10,29,7.70
2007,01,09,10,30,7.70
2007,01,09,10,31,7.70
2007,01,09,10,32,7.70
2007,01,09,10,33,7.70
2007,01,09,10,34,7.70
2007,01,09,10,35,7.70
2007,01,09,10,36,7.80
2007,01,09,10,37,7.80
2007,01,09,10,38,7.80
2007,01,09,10,39,7.80
2007,01,09,10,40,7.80
2007,01,09,10,41,7.80
2007,01,09,10,42,7.80
2007,01,09,10,43,7.80
2007,01,09,10,44,7.80
2007,01,09,10,45,7.80
2007,01,09,10,46,7.80
2007,01,09,10,47,7.80
2007,01,09,10,48,7.80
2007,01,09,10,49,7.80
2007,01,09,10,50,7.80
2007,01,09,10,51,7.80
2007,01,09,10,52,7.80
2007,01,09,10,53,7.80
2007,01,09,10,54,7.80
2007,01,09,10,55,7.80
2007,01,09,10,56,7.80
2007,01,09,10,57,7.80
2007,01,09,10,58,7.80
2007,01,09,10,59,7.80
2007,01,09,11,00,7.80
2007,01,09,11,01,7.80
2007,01,09,11,02,7.80
2007,01,09,11,03,7.80
2007,01,09,11,04,7.80
2007,01,09,11,05,7.80
2007,01,09,11,06,7.80
2007,01,09,11,07,7.80
2007,01,09,11,08,7.80
2007,01,09,11,09,7.80
2007,01,09,11,10,7.80
2007,01,09,11,11,7.80
2007,01,09,11,12,7.80
2007,01,09,11,13,7.90
2007,01,09,11,14,7.90
2007,01,09,11,15,7.90
2007,01,09,11,16,7.90
2007,01,09,11,17,7.90
2007,01,09,11,18,7.90
2007,01,09,11,19,8.00
2007,01,09,11,20,8.00
2007,01,09,11,21,8.00
2007,01,09,11,22,8.00
2007,01,09,11,23,8.00
2007,01,09,11,24,8.10
2007,01,09,11,25,8.10
2007,01,09,11,26,8.10
2007,01,09,11,27,8.10
2007,01,09,11,28,8.20
2007,01,09,11,29,8.20
2007,01,09,11,30,8.20
2007,01,09,11,31,8.20
2007,01,09,11,32,8.20
2007,01,09,11,33,8.20
2007,01,09,11,34,8.20
2007,01,09,11,35,8.20
2007,01,09,11,36,8.20
2007,01,09,11,37,8.20
2007,01,09,11,38,8.20
2007,01,09,11,39,8.20
2007,01,09,11,40,8.20
2007,01,09,11,41,8.30
2007,01,09,11,42,8.30
2007,01,09,11,43,8.40
2007,01,09,11,44,8.50
2007,01,09,11,45,8.60
2007,01,09,11,46,8.70
2007,01,09,11,47,8.80
2007,01,09,11,48,8.90
2007,01,09,11,49,9.00
2007,01,09,11,50,9.10
2007,01,09,11,51,9.20
2007,01,09,11,52,9.20
2007,01,09,11,53,9.30
2007,01,09,11,54,9.40
2007,01,09,11,55,9.50
2007,01,09,11,56,9.60
2007,01,09,11,57,9.70
2007,01,09,11,58,9.70
2007,01,09,11,59,9.70
2007,01,09,12,00,9.80
2007,01,09,12,01,9.80
2007,01,09,12,02,9.90
2007,01,09,12,03,9.90
2007,01,09,12,04,9.90
2007,01,09,12,05,10.10
2007,01,09,12,06,10.10
2007,01,09,12,07,10.10
2007,01,09,12,08,10.10
2007,01,09,12,09,10.10
2007,01,09,12,10,10.10
2007,01,09,12,11,10.10
2007,01,09,12,12,10.10
2007,01,09,12,13,10.20
2007,01,09,12,14,10.20
2007,01,09,12,15,10.20
2007,01,09,12,16,10.30
2007,01,09,12,17,10.30
2007,01,09,12,18,10.30
2007,01,09,12,19,10.30
2007,01,09,12,20,10.30
2007,01,09,12,21,10.30
2007,01,09,12,22,10.20
2007,01,09,12,23,10.20
2007,01,09,12,24,10.10
2007,01,09,12,25,10.10
2007,01,09,12,26,9.90
2007,01,09,12,27,9.90
2007,01,09,12,28,9.80
2007,01,09,12,29,9.70
2007,01,09,12,30,9.70
2007,01,09,12,31,9.60
2007,01,09,12,32,9.50
2007,01,09,12,33,9.40
2007,01,09,12,34,9.30
2007,01,09,12,35,9.30
2007,01,09,12,36,9.20
2007,01,09,12,37,9.20
2007,01,09,12,38,9.20
2007,01,09,12,39,9.10
2007,01,09,12,40,9.10
2007,01,09,12,41,9.00
2007,01,09,12,42,9.00
2007,01,09,12,43,9.00
2007,01,09,12,44,9.00
2007,01,09,12,45,8.90
2007,01,09,12,46,8.90
2007,01,09,12,47,8.90
2007,01,09,12,48,8.90
2007,01,09,12,49,9.00
2007,01,09,12,50,9.00
2007,01,09,12,51,9.10
2007,01,09,12,52,9.10
2007,01,09,12,53,9.20
2007,01,09,12,54,9.20
2007,01,09,12,55,9.20
2007,01,09,12,56,9.20
2007,01,09,12,57,9.20
2007,01,09,12,58,9.10
2007,01,09,12,59,9.10
2007,01,09,13,00,9.00
2007,01,09,13,01,9.00
2007,01,09,13,02,8.90
2007,01,09,13,03,8.80
2007,01,09,13,04,8.80
2007,01,09,13,05,8.70
2007,01,09,13,06,8.70
2007,01,09,13,07,8.60
2007,01,09,13,08,8.60
2007,01,09,13,09,8.50
2007,01,09,13,10,8.40
2007,01,09,13,11,8.40
2007,01,09,13,12,8.30
2007,01,09,13,13,8.20
2007,01,09,13,14,8.20
2007,01,09,13,15,8.20
2007,01,09,13,16,8.20
2007,01,09,13,17,8.20
2007,01,09,13,18,8.10
2007,01,09,13,19,8.10
2007,01,09,13,20,8.10
2007,01,09,13,21,8.10
2007,01,09,13,22,8.10
2007,01,09,13,23,8.00
2007,01,09,13,24,8.00
2007,01,09,13,25,8.00
2007,01,09,13,26,8.00
2007,01,09,13,27,8.00
2007,01,09,13,28,8.00
2007,01,09,13,29,7.90
2007,01,09,13,30,7.90
2007,01,09,13,31,7.80
2007,01,09,13,32,7.80
2007,01,09,13,33,7.80
2007,01,09,13,34,7.80
2007,01,09,13,35,7.80
2007,01,09,13,36,7.80
2007,01,09,13,37,7.80
2007,01,09,13,38,7.80
2007,01,09,13,39,7.80
2007,01,09,13,40,7.80
2007,01,09,13,41,7.80
2007,01,09,13,42,7.80
2007,01,09,13,43,7.80
2007,01,09,13,44,7.80
2007,01,09,13,45,7.80
2007,01,09,13,46,7.80
2007,01,09,13,47,7.80
2007,01,09,13,48,7.80
2007,01,09,13,49,7.80
2007,01,09,13,50,7.80
2007,01,09,13,51,7.80
2007,01,09,13,52,7.70
2007,01,09,13,53,7.60
2007,01,09,13,54,7.40
2007,01,09,13,55,7.20
2007,01,09,13,56,6.90
2007,01,09,13,57,6.70
2007,01,09,13,58,6.50
2007,01,09,13,59,6.30
2007,01,09,14,00,6.10
2007,01,09,14,01,5.90
2007,01,09,14,02,5.70
2007,01,09,14,03,5.60
2007,01,09,14,04,5.50
2007,01,09,14,05,5.40
2007,01,09,14,06,5.30
2007,01,09,14,07,5.20
2007,01,09,14,08,5.20
2007,01,09,14,09,5.10
2007,01,09,14,10,5.10
2007,01,09,14,11,5.00
2007,01,09,14,12,4.90
2007,01,09,14,13,4.90
2007,01,09,14,14,4.90
2007,01,09,14,15,4.90
2007,01,09,14,16,4.80
2007,01,09,14,17,4.80
2007,01,09,14,18,4.80
2007,01,09,14,19,4.80
2007,01,09,14,20,4.80
2007,01,09,14,21,4.80
2007,01,09,14,22,4.70
2007,01,09,14,23,4.70
2007,01,09,14,24,4.70
2007,01,09,14,25,4.70
2007,01,09,14,26,4.70
2007,01,09,14,27,4.80
2007,01,09,14,28,4.80
2007,01,09,14,29,4.80
2007,01,09,14,30,4.80
2007,01,09,14,31,4.80
2007,01,09,14,32,4.80
2007,01,09,14,33,4.80
2007,01,09,14,34,4.90
2007,01,09,14,35,4.90
2007,01,09,14,36,4.90
2007,01,09,14,37,4.90
2007,01,09,14,38,4.90
2007,01,09,14,39,4.90
2007,01,09,14,40,4.90
2007,01,09,14,41,5.00
2007,01,09,14,42,5.10
2007,01,09,14,43,5.10
2007,01,09,14,44,5.10
2007,01,09,14,45,5.10
2007,01,09,14,46,5.10
2007,01,09,14,47,5.10
2007,01,09,14,48,5.10
2007,01,09,14,49,5.20
2007,01,09,14,50,5.20
2007,01,09,14,51,5.20
2007,01,09,14,52,5.20
2007,01,09,14,53,5.20
2007,01,09,14,54,5.20
2007,01,09,14,55,5.30
2007,01,09,14,56,5.30
2007,01,09,14,57,5.30
2007,01,09,14,58,5.30
2007,01,09,14,59,5.30
2007,01,09,15,00,5.30
2007,01,09,15,01,5.30
2007,01,09,15,02,5.30
2007,01,09,15,03,5.30
2007,01,09,15,04,5.20
2007,01,09,15,05,5.20
2007,01,09,15,06,5.20
2007,01,09,15,07,5.20
2007,01,09,15,08,5.20
2007,01,09,15,09,5.20
2007,01,09,15,10,5.20
2007,01,09,15,11,5.20
2007,01,09,15,12,5.20
2007,01,09,15,13,5.20
2007,01,09,15,14,5.20
2007,01,09,15,15,5.20
2007,01,09,15,16,5.20
2007,01,09,15,17,5.20
2007,01,09,15,18,5.20
2007,01,09,15,19,5.20
2007,01,09,15,20,5.20
2007,01,09,15,21,5.20
2007,01,09,15,22,5.20
2007,01,09,15,23,5.20
2007,01,09,15,24,5.20
2007,01,09,15,25,5.20
2007,01,09,15,26,5.20
2007,01,09,15,27,5.20
2007,01,09,15,28,5.20
2007,01,09,15,29,5.20
2007,01,09,15,30,5.20
2007,01,09,15,31,5.20
2007,01,09,15,32,5.20
2007,01,09,15,33,5.20
2007,01,09,15,34,5.10
2007,01,09,15,35,5.10
2007,01,09,15,36,5.10
2007,01,09,15,37,5.10
2007,01,09,15,38,5.10
2007,01,09,15,39,5.10
2007,01,09,15,40,5.10
2007,01,09,15,41,5.10
2007,01,09,15,42,5.10
2007,01,09,15,43,5.10
2007,01,09,15,44,5.00
2007,01,09,15,45,4.90
2007,01,09,15,46,4.90
2007,01,09,15,47,4.90
2007,01,09,15,48,4.90
2007,01,09,15,49,4.90
2007,01,09,15,50,4.90
2007,01,09,15,51,4.90
2007,01,09,15,52,4.90
2007,01,09,15,53,4.90
2007,01,09,15,54,4.90
2007,01,09,15,55,4.90
2007,01,09,15,56,4.90
2007,01,09,15,57,4.90
2007,01,09,15,58,4.90
2007,01,09,15,59,4.90
2007,01,09,16,00,4.80
2007,01,09,16,01,4.80
2007,01,09,16,02,4.80
2007,01,09,16,03,4.80
2007,01,09,16,04,4.80
2007,01,09,16,05,4.80
2007,01,09,16,06,4.80
2007,01,09,16,07,4.80
2007,01,09,16,08,4.80
2007,01,09,16,09,4.80
2007,01,09,16,10,4.80
2007,01,09,16,11,4.80
2007,01,09,16,12,4.80
2007,01,09,16,13,4.80
2007,01,09,16,14,4.80
2007,01,09,16,15,4.80
2007,01,09,16,16,4.80
2007,01,09,16,17,4.80
2007,01,09,16,18,4.80
2007,01,09,16,19,4.80
2007,01,09,16,20,4.70
2007,01,09,16,21,4.70
2007,01,09,16,22,4.70
2007,01,09,16,23,4.70
2007,01,09,16,24,4.70
2007,01,09,16,25,4.80
2007,01,09,16,26,4.80
2007,01,09,16,27,4.80
2007,01,09,16,28,4.80
2007,01,09,16,29,4.80
2007,01,09,16,30,4.80
2007,01,09,16,31,4.80
2007,01,09,16,32,4.70
2007,01,09,16,33,4.70
2007,01,09,16,34,4.80
2007,01,09,16,35,4.80
2007,01,09,16,36,4.80
2007,01,09,16,37,4.80
2007,01,09,16,38,4.80
2007,01,09,16,39,4.80
2007,01,09,16,40,4.70
2007,01,09,16,41,4.70
2007,01,09,16,42,4.70
2007,01,09,16,43,4.70
2007,01,09,16,44,4.70
2007,01,09,16,45,4.70
2007,01,09,16,46,4.70
2007,01,09,16,47,4.60
2007,01,09,16,48,4.60
2007,01,09,16,49,4.60
2007,01,09,16,50,4.60
2007,01,09,16,51,4.60
2007,01,09,16,52,4.60
2007,01,09,16,53,4.60
2007,01,09,16,54,4.60
2007,01,09,16,55,4.60
2007,01,09,16,56,4.60
2007,01,09,16,57,4.60
2007,01,09,16,58,4.60
2007,01,09,16,59,4.60
2007,01,09,17,00,4.60
2007,01,09,17,01,4.60
2007,01,09,17,02,4.60
2007,01,09,17,03,4.60
2007,01,09,17,04,4.60
2007,01,09,17,05,4.60
2007,01,09,17,06,4.60
2007,01,09,17,07,4.60
2007,01,09,17,08,4.60
2007,01,09,17,09,4.60
2007,01,09,17,10,4.60
2007,01,09,17,11,4.60
2007,01,09,17,12,4.60
2007,01,09,17,13,4.60
2007,01,09,17,14,4.60
2007,01,09,17,15,4.60
2007,01,09,17,16,4.60
2007,01,09,17,17,4.60
2007,01,09,17,18,4.60
2007,01,09,17,19,4.60
2007,01,09,17,20,4.60
2007,01,09,17,21,4.60
2007,01,09,17,22,4.60
2007,01,09,17,23,4.60
2007,01,09,17,24,4.60
2007,01,09,17,25,4.50
2007,01,09,17,26,4.50
2007,01,09,17,27,4.50
2007,01,09,17,28,4.50
2007,01,09,17,29,4.50
2007,01,09,17,30,4.50
2007,01,09,17,31,4.50
2007,01,09,17,32,4.40
2007,01,09,17,33,4.40
2007,01,09,17,34,4.40
2007,01,09,17,35,4.40
2007,01,09,17,36,4.40
2007,01,09,17,37,4.40
2007,01,09,17,38,4.40
2007,01,09,17,39,4.30
2007,01,09,17,40,4.30
2007,01,09,17,41,4.30
2007,01,09,17,42,4.30
2007,01,09,17,43,4.30
2007,01,09,17,44,4.30
2007,01,09,17,45,4.30
2007,01,09,17,46,4.30
2007,01,09,17,47,4.30
2007,01,09,17,48,4.30
2007,01,09,17,49,4.30
2007,01,09,17,50,4.30
2007,01,09,17,51,4.30
2007,01,09,17,52,4.30
2007,01,09,17,53,4.30
2007,01,09,17,54,4.30
2007,01,09,17,55,4.30
2007,01,09,17,56,4.20
2007,01,09,17,57,4.10
2007,01,09,17,58,4.00
2007,01,09,17,59,3.80
2007,01,09,18,00,3.70
2007,01,09,18,01,3.60
2007,01,09,18,02,3.40
2007,01,09,18,03,3.30
2007,01,09,18,04,3.30
2007,01,09,18,05,3.20